Flag for Germany Weather past 2 weeks in Biberach an der Riss, Baden-Württemberg, Germany

Now
43 °F

Passing clouds.


Feels Like: 36 °F
Forecast: 34 / 45 °F
Wind: 13 mph from Southwest

Location: Laupheim Airport

Current Time: Dec 22, 2014 at 11:07:09 PM

Latest Report: Dec 22, 2014 at 9:20 PM


Visibility: N/A

Pressure: 30.27 "Hg

Humidity: 61%

Dew point: 30 °F

Location of Biberach an der RissLocation

Historic Weather in Biberach an der Riss — Graph

°F

Biberach an der Riss temperature yesterday

Maximum temperature yesterday: 41 °F (at 12:20 PM)
Minimum temperature yesterday: 34 °F (at 7:20 AM)
Average temperature yesterday: 37 °F

Past Weeks' High & Low Weather Summary

 TemperatureHumidityPressure
High52 °F (Dec 18, 11:20 PM)100% (Dec 8, 6:20 AM)30.51 "Hg (Dec 8, 6:20 AM)
Low30 °F (Dec 9, 6:20 AM)57% (Dec 12, 1:20 PM)29.77 "Hg (Dec 12, 8:20 PM)
Average40 °F85%30.10 "Hg
* Reported Dec 7 9:20 PM — Dec 22 9:20 PM, Biberach an der Riss, Weather by CustomWeather, © 2014

Note: Actual official high and low records may vary slightly from our data, if they occured in-between our weather recording intervals... More about our weather records

Advertising

Biberach an der Riss weather history for previous 24 hours

 ConditionsComfort  
Time TempWeatherWind HumidityBarometerVisibility
9:20 PM
Dec 22
43 °FPassing clouds.13 mph61%30.27 "HgN/A
8:20 PM41 °FPassing clouds.13 mph70%30.30 "HgN/A
7:20 PM39 °FPassing clouds.6 mph81%30.30 "HgN/A
6:20 PM41 °FPassing clouds.13 mph76%30.27 "HgN/A
5:20 PM43 °FPartly cloudy.13 mph71%30.27 "HgN/A
4:20 PM43 °FPartly sunny.13 mph66%30.27 "HgN/A
3:20 PM43 °FPartly sunny.13 mph71%30.30 "HgN/A
2:20 PM41 °FPartly sunny.14 mph76%30.30 "HgN/A
1:20 PM41 °FPartly sunny.16 mph76%30.30 "HgN/A
12:20 PM39 °FPartly sunny.16 mph81%30.33 "HgN/A
11:20 AM37 °FPartly sunny.12 mph81%30.36 "HgN/A
10:20 AM36 °FBroken clouds.16 mph87%30.36 "HgN/A
9:20 AM34 °FPartly sunny.15 mph93%30.36 "HgN/A
8:20 AM34 °FPartly sunny.16 mph93%30.36 "HgN/A
7:20 AM34 °FPassing clouds.17 mph93%30.33 "HgN/A
6:20 AM34 °FPassing clouds.10 mph93%30.36 "HgN/A
5:20 AM34 °FPassing clouds.8 mph93%30.36 "HgN/A
4:20 AM34 °FPassing clouds.14 mph93%30.36 "HgN/A
3:20 AM34 °FPassing clouds.10 mph87%30.39 "HgN/A
2:20 AM34 °FPassing clouds.8 mph87%30.39 "HgN/A
1:20 AM34 °FPassing clouds.13 mph93%30.39 "HgN/A
12:20 AM34 °FPassing clouds.10 mph93%30.39 "HgN/A
11:20 PM
Dec 21
34 °FPassing clouds.10 mph93%30.42 "HgN/A
Weather by CustomWeather, © 2014

See weather overviewHow to use our weather pages